Overview Statistics Trail Chart Weather Telemetry Raw packets
 

This is the latest recevied weather packets stored in our database for station/object KD8DNS. If no packets are shown the sender has not sent any weather packets the latest 10 day(s).

<< 98 99 100 101 102 103 104 >>
Time Temp. Humidity Pressure Rain* Wind** Luminosity Snow
1787934456 27.78° C 60% 1023.2 hPa 0 mm - 663 W/m² -
1787934151 27.78° C 62% 1023 hPa 0 mm - 655 W/m² -
1787933850 26.67° C 64% 1023.1 hPa 0 mm - 678 W/m² -
1787933545 27.22° C 66% 1023.1 hPa 0 mm - 161 W/m² -
1787933240 26.67° C 66% 1023.1 hPa 0 mm - 697 W/m² -
1787932947 26.67° C 67% 1023 hPa 0 mm - 95 W/m² -
1787932639 27.22° C 64% 1022.7 hPa 0 mm - 81 W/m² -
1787932339 27.22° C 66% 1023 hPa 0 mm - 645 W/m² -
1787932033 27.78° C 66% 1022.9 hPa 0 mm - 599 W/m² -
1787931732 27.78° C 61% 1023.1 hPa 0 mm - 578 W/m² -
1787931432 27.78° C 63% 1022.9 hPa 0 mm - 596 W/m² -
1787931127 27.78° C 65% 1023.1 hPa 0 mm - 574 W/m² -
1787930826 26.67° C 65% 1023 hPa 0 mm - 546 W/m² -
1787930521 27.22° C 66% 1023 hPa 0 mm - 565 W/m² -
1787930216 26.67° C 68% 1022.9 hPa 0 mm - 556 W/m² -
1787929915 26.67° C 70% 1022.9 hPa 0 mm - 492 W/m² -
1787929614 26.67° C 69% 1023 hPa 0 mm - 441 W/m² -
1787929309 26.11° C 70% 1022.8 hPa 0 mm - 432 W/m² -
1787929007 26.67° C 68% 1022.8 hPa 0 mm - 495 W/m² -
1787928702 26.67° C 69% 1022.9 hPa 0 mm - 471 W/m² -
1787928400 26.67° C 69% 1022.9 hPa 0 mm - 447 W/m² -
1787928099 26.67° C 68% 1022.7 hPa 0 mm - 491 W/m² -
1787927793 26.11° C 68% 1022.9 hPa 0 mm - 487 W/m² -
1787927488 26.67° C 67% 1022.8 hPa 0 mm - 393 W/m² -
1787927183 26.11° C 68% 1022.9 hPa 0 mm - 378 W/m² -

* Rain latest hour (hover to see other rain measurements)
** Current wind speed in m/s (hover to see current wind gust speed)